Regional Weather Roundup
Issued by NWS

Home | Current Version | Previous Version | Text Only | Print | Product List | Glossary On
Versions: 1 2 3 4 5 6 7 8 9 10 11 12 13 14 15 16 17 18 19 20 21 22 23 24 25 26 27
000
ASUS45 KCYS 250010
RWRWY

WYOMING REGIONAL WEATHER ROUNDUP
NATIONAL WEATHER SERVICE CHEYENNE WY
600 PM MDT FRI OCT 24 2014

NOTE:  "FAIR" INDICATES FEW OR NO CLOUDS BELOW 12,000 FEET
WITH NO SIGNIFICANT WEATHER AND/OR OBSTRUCTIONS TO VISIBILITY.

WYZ001-250100-
YELLOWSTONE NATIONAL PARK

CITY           SKY/WX    TMP DP  RH WIND       PRES   REMARKS
LK YELLOWSTONE   N/A     51  20  29 VRB3      30.25
6HR MIN TEMP:  47; 6HR MAX TEMP:  54;

W YELLOWSTONE  NOT AVBL

$$
WYZ002>013-054>058-071-098>099-250100-
NORTHERN WYOMING

CITY           SKY/WX    TMP DP  RH WIND       PRES   REMARKS
JACKSON        CLEAR     63  27  25 S12       30.17S
CODY           PTCLDY    57  37  47 NE14      30.07
GREYBULL       CLEAR     68  32  26 NW9       29.99R
6HR MIN TEMP:  55; 6HR MAX TEMP:  77;

WORLAND        CLEAR     71  35  26 NE5       29.99R
6HR MIN TEMP:  63; 6HR MAX TEMP:  77;

SHERIDAN       PTCLDY    56  33  42 N8        30.07R
6HR MIN TEMP:  56; 6HR MAX TEMP:  69;

BUFFALO        CLEAR     57  32  38 NW6       30.10R
6HR MIN TEMP:  57; 6HR MAX TEMP:  68;

GILLETTE       CLEAR     56  33  42 NE8       30.07R
HULETT         CLOUDY    57  32  38 NE7       30.10
NEWCASTLE      FAIR      63  28  27 SE6       30.04

$$
WYZ014>020-022>026-101>103-250100-
CENTRAL WYOMING

CITY           SKY/WX    TMP DP  RH WIND       PRES   REMARKS
BIG PINEY      CLEAR     58  22  24 W9        30.24S
6HR MIN TEMP:  56; 6HR MAX TEMP:  69; 6HR PCP: TRACE;

PINEDALE       CLEAR     59  21  23 W6        30.24
DUBOIS         FAIR      57  18  21 W13       30.18R
LANDER         CLEAR     68  20  16 SW8       30.07S
6HR MIN TEMP:  61; 6HR MAX TEMP:  75;

RIVERTON       CLEAR     69  20  15 SW8       30.08R
6HR MIN TEMP:  60; 6HR MAX TEMP:  74;

CASPER         CLEAR     68  18  14 SW13      30.10R
6HR MIN TEMP:  68; 6HR MAX TEMP:  75;

DOUGLAS        CLEAR     71  19  14 W15       30.08S
6HR MIN TEMP:  71; 6HR MAX TEMP:  79;


$$
WYZ021-027>030-104>119-250100-
SOUTHERN WYOMING

CITY           SKY/WX    TMP DP  RH WIND       PRES   REMARKS
EVANSTON       CLEAR     64  25  22 W15       30.25S
6HR MIN TEMP:  64; 6HR MAX TEMP:  70;

KEMMERER       CLEAR    N/A N/A N/A W10       30.26S
FORT BRIDGER   FAIR      68  23  18 W14       30.27R
ROCK SPRINGS   CLEAR     63  24  22 SW7       30.23S
6HR MIN TEMP:  59; 6HR MAX TEMP:  68;

RAWLINS        CLEAR     63  26  24 SW17      30.24R
6HR MIN TEMP:  63; 6HR MAX TEMP:  69;

SARATOGA       FAIR      61  25  25 SW9       30.28R
LARAMIE        CLEAR     61  21  21 W12       30.26R
6HR MIN TEMP:  61; 6HR MAX TEMP:  71;

CHEYENNE       CLEAR     66  25  21 SW9       30.20R
6HR MIN TEMP:  66; 6HR MAX TEMP:  77;

TORRINGTON     CLEAR     73  25  16 NW12      30.03S
6HR MIN TEMP:  73; 6HR MAX TEMP:  82;

PINE BLUFFS    FAIR      64  30  27 W10       30.14R

$$



USA.gov is the U.S. government's official web portal to all federal, state and local government web resources and services.